Showing default

COSMOS 2214, 22185

Orbit data source: Space-Track

COSMOS 2214, 22185 is a payload satellite owned by VKS (CIS) in LEO that was launched on Tue, 20 Oct 1992 UTC via a TSIKLON-3 launch vehicle from the Plesetsk Missile And Space Complex (PKMTR). Payload-class satellites include a variety of spacecraft equipped with specific instruments for various scientific and technological missions. These include communications satellites like Starlink; space stations such as the ISS; scientific satellites like the Hubble; Earth observation satellites from companies like Planet Labs, Umbra, and HawkEye 360; GPS; miniature CubeSats for education and research; and military/defense satellites.

Loading next visibility...
Identifier
22185, 1992-068D
Orbit
LEO
Country
Flag of CISCIS
Related business
Manufacturer
NPO PM
Mission
Defense Communications
Bus & Motor
STRELA-3, Unknown motor
Mass
225 kg wet, 225 kg dry
Launch date (UTC)
1992-10-20 (33 years ago)
Launch vehicle
TSIKLON-3
Launch site
Plesetsk Missile And Space Complex (PKMTR)
Object type
Payload
Rocket body
Debris
Shape & HBR
Cyl, 0.8 m
Radar Cross Section
1.257 m², Large (>1 m²)

Expand to show TLE details & history
Last TLE update: 21 hours ago

TLE from 21 hours ago
0 COSMOS 2214
1 22185U 92068D   25260.20208525  .00000016  00000-0  31690-4 0  9992
2 22185  82.5960 167.4305 0009800  52.1822 100.8416 12.61593940515228
Epoch: 2025-09-17T04:51Z
TLE epoch observation values (Epoch: 2025-09-17T04:51:00.165Z)
Latitude
26.65762°
Longitude
-85.42358°
Altitude
1,420.921 km
Speed
7.152 km/s
True Right ascension
22h 54m 50s
True Declination
26° 31' 54"
Sunlit
Object was in full shadow at epoch
Visualization orbit readout
Latitude
Unknown
Longitude
Unknown
Altitude
Unknown
Speed
Unknown
Apparent Right ascension
Unknown
Apparent Declination
Unknown
Sunlit
N/A
Visualization observer readout
Local Sidereal Time
18:28:22
Azimuth
Unknown
Elevation
Unknown
Doppler factor
Unknown
Orbital elements
Apogee altitude
1,421.329 km
Perigee altitude
1,406.057 km
Semi-major axis
7,791.83 km
Eccentricity
0.00098
Inclination
82.596°
RAAN
167.4305°
Arg. of periapsis
52.1822°
True anomaly
100.95187°
Mean anomaly
100.8416°
Eccentric anomaly
100.89674°
Mean motion
3.15561 °/min
Orbital period
114.08 mins
BSTAR
0.00003169
Loading maneuver chart data...
Computing Atmospheric mass density...
Loading historical data...
Loading historical data...
Loading historical data...
Loading historical data...
Loading historical data...
Loading historical data...
Loading historical data...

Documentation

Showing up to 5 results
|